,,Stat5,,Stat1,,Stat2,,Stat3,,Stat4,,Wind1,,Wind1,
time,status,PA1M_AVG,status,PR1M_SUM,status,RH1M_AVG,status,SR1M_AVG,status,TA1M_AVG,status,W1dAve1m,status,W1sAve1m,
2002-03-16, 00:00:00,VALID,918.742,VALID,0,VALID,98.9105,VALID,-0.0849042,VALID,19.9164,VALID,144,VALID,1.1901,
2002-03-16, 00:01:00,VALID,918.742,VALID,0,VALID,98.9054,VALID,-0.0849042,VALID,19.9132,VALID,133,VALID,0.821791,
2002-03-16, 00:02:00,VALID,918.756,VALID,0,VALID,98.8952,VALID,-0.0849042,VALID,19.9097,VALID,110,VALID,0.618336,
2002-03-16, 00:03:00,VALID,918.77,VALID,0,VALID,98.8927,VALID,-0.0679233,VALID,19.9358,VALID,72,VALID,0.430889,
2002-03-16, 00:04:00,VALID,918.791,VALID,0,VALID,98.8914,VALID,-0.0509425,VALID,19.939,VALID,74,VALID,0.853733,
2002-03-16, 00:05:00,VALID,918.817,VALID,0,VALID,98.8698,VALID,-0.0849042,VALID,19.9353,VALID,23,VALID,1.00558,
2002-03-16, 00:06:00,VALID,918.846,VALID,0,VALID,98.8456,VALID,-0.0679233,VALID,19.9358,VALID,22,VALID,1.03451,
2002-03-16, 00:07:00,VALID,918.851,VALID,0,VALID,98.8227,VALID,-0.0509425,VALID,19.9129,VALID,26,VALID,0.876302,
2002-03-16, 00:08:00,VALID,918.856,VALID,0,VALID,98.8151,VALID,-0.0509425,VALID,19.9164,VALID,29,VALID,0.566071,
2002-03-16, 00:09:00,VALID,918.838,VALID,0,VALID,98.8049,VALID,-0.0339617,VALID,19.9067,VALID,35,VALID,0.631727,
2002-03-16, 00:10:00,VALID,918.851,VALID,0,VALID,98.8049,VALID,-0.0679233,VALID,19.897,VALID,37,VALID,0.972005,
2002-03-16, 00:11:00,VALID,918.852,VALID,0,VALID,98.7935,VALID,-0.0679233,VALID,19.893,VALID,19,VALID,0.652803,
2002-03-16, 00:12:00,VALID,918.865,VALID,0,VALID,98.7935,VALID,-0.101885,VALID,19.9062,VALID,51,VALID,0.731554,
2002-03-16, 00:13:00,VALID,918.871,VALID,0,VALID,98.7757,VALID,-0.0849042,VALID,19.9003,VALID,23,VALID,0.562054,
2002-03-16, 00:14:00,VALID,918.879,VALID,0,VALID,98.777,VALID,-0.0679233,VALID,19.91,VALID,37,VALID,0.440717,
2002-03-16, 00:15:00,VALID,918.883,VALID,0,VALID,98.7643,VALID,-0.0679233,VALID,19.9134,VALID,35,VALID,0.155633,
2002-03-16, 00:16:00,VALID,918.896,VALID,0,VALID,98.7655,VALID,-0.0509425,VALID,19.9201,VALID,32,VALID,0.209671,
2002-03-16, 00:17:00,VALID,918.909,VALID,0,VALID,98.7439,VALID,-0.101885,VALID,19.9003,VALID,31,VALID,0.185059,
2002-03-16, 00:18:00,VALID,918.914,VALID,0,VALID,98.7248,VALID,-0.0849042,VALID,19.897,VALID,33,VALID,0.0967882,
2002-03-16, 00:19:00,VALID,918.914,VALID,0,VALID,98.7197,VALID,-0.101885,VALID,19.8973,VALID,33,VALID,0.0924479,
2002-03-16, 00:20:00,VALID,918.908,VALID,0,VALID,98.707,VALID,-0.101885,VALID,19.8943,VALID,33,VALID,0.00828598,
2002-03-16, 00:21:00,VALID,918.887,VALID,0,VALID,98.7058,VALID,-0.0509425,VALID,19.9005,VALID,35,VALID,0.0990954,
2002-03-16, 00:22:00,VALID,918.893,VALID,0,VALID,98.7147,VALID,-0.0849042,VALID,19.9003,VALID,34,VALID,0.0741071,
2002-03-16, 00:23:00,VALID,918.891,VALID,0,VALID,98.7019,VALID,-0.101885,VALID,19.894,VALID,353,VALID,0.327665,
2002-03-16, 00:24:00,VALID,918.9,VALID,0,VALID,98.693,VALID,-0.0849042,VALID,19.901,VALID,348,VALID,0.342483,
2002-03-16, 00:25:00,VALID,918.891,VALID,0,VALID,98.6778,VALID,-0.0509425,VALID,19.8935,VALID,348,VALID,0.219595,
2002-03-16, 00:26:00,VALID,918.891,VALID,0,VALID,98.6854,VALID,-0.0679233,VALID,19.9137,VALID,348,VALID,0,
2002-03-16, 00:27:00,VALID,918.878,VALID,0,VALID,98.6752,VALID,-0.0849042,VALID,19.9005,VALID,348,VALID,0.0177951,
2002-03-16, 00:28:00,VALID,918.868,VALID,0,VALID,98.693,VALID,-0.0509425,VALID,19.9167,VALID,348,VALID,0.0989583,
2002-03-16, 00:29:00,VALID,918.873,VALID,0,VALID,98.688,VALID,-0.0679233,VALID,19.9331,VALID,348,VALID,0.00142045,
2002-03-16, 00:30:00,VALID,918.853,VALID,0,VALID,98.6892,VALID,-0.0679233,VALID,19.9358,VALID,348,VALID,0,
2002-03-16, 00:31:00,VALID,918.837,VALID,0,VALID,98.6702,VALID,-0.0679233,VALID,19.9164,VALID,348,VALID,0,
2002-03-16, 00:32:00,VALID,918.839,VALID,0,VALID,98.6473,VALID,-0.0679233,VALID,19.9132,VALID,348,VALID,0,
2002-03-16, 00:33:00,VALID,918.827,VALID,0,VALID,98.6346,VALID,-0.0849042,VALID,19.904,VALID,348,VALID,0,
2002-03-16, 00:34:00,VALID,918.815,VALID,0,VALID,98.632,VALID,-0.101885,VALID,19.8916,VALID,348,VALID,0,
2002-03-16, 00:35:00,VALID,918.807,VALID,0,VALID,98.6231,VALID,-0.0849042,VALID,19.8781,VALID,348,VALID,0,
2002-03-16, 00:36:00,VALID,918.797,VALID,0,VALID,98.6167,VALID,-0.0849042,VALID,19.8585,VALID,348,VALID,0,
2002-03-16, 00:37:00,VALID,918.811,VALID,0.2,VALID,98.632,VALID,-0.0849042,VALID,19.862,VALID,348,VALID,0,
2002-03-16, 00:38:00,VALID,918.797,VALID,0,VALID,98.6371,VALID,-0.0849042,VALID,19.8583,VALID,348,VALID,0,
2002-03-16, 00:39:00,VALID,918.803,VALID,0,VALID,98.6371,VALID,-0.0679233,VALID,19.8553,VALID,348,VALID,0,
2002-03-16, 00:40:00,VALID,918.804,VALID,0,VALID,98.6384,VALID,-0.0339617,VALID,19.8448,VALID,348,VALID,0,
2002-03-16, 00:41:00,VALID,918.815,VALID,0,VALID,98.6511,VALID,0.0169808,VALID,19.8637,VALID,348,VALID,0,
2002-03-16, 00:42:00,VALID,918.81,VALID,0,VALID,98.6562,VALID,0.0169808,VALID,19.8697,VALID,348,VALID,0,
2002-03-16, 00:43:00,VALID,918.824,VALID,0,VALID,98.6714,VALID,0.0509425,VALID,19.8796,VALID,348,VALID,0,
2002-03-16, 00:44:00,VALID,918.828,VALID,0,VALID,98.6778,VALID,0.0679233,VALID,19.8829,VALID,79,VALID,0.652832,
2002-03-16, 00:45:00,VALID,918.821,VALID,0,VALID,98.7058,VALID,0.0509425,VALID,19.902,VALID,114,VALID,0.914714,
2002-03-16, 00:46:00,VALID,918.831,VALID,0,VALID,98.7083,VALID,0.0339617,VALID,19.9281,VALID,70,VALID,0.265625,
2002-03-16, 00:47:00,VALID,918.829,VALID,0,VALID,98.6867,VALID,0.0509425,VALID,19.9311,VALID,133,VALID,0.28196,
2002-03-16, 00:48:00,VALID,918.837,VALID,0,VALID,98.6918,VALID,0.0339617,VALID,19.9477,VALID,127,VALID,0.0563322,
2002-03-16, 00:49:00,VALID,918.822,VALID,0,VALID,98.6524,VALID,0,VALID,19.9606,VALID,127,VALID,0,
2002-03-16, 00:50:00,VALID,918.81,VALID,0,VALID,98.6282,VALID,0.0169808,VALID,19.9803,VALID,127,VALID,0,
2002-03-16, 00:51:00,VALID,918.785,VALID,0,VALID,98.6015,VALID,0.0509425,VALID,19.9663,VALID,127,VALID,0,
2002-03-16, 00:52:00,VALID,918.764,VALID,0,VALID,98.5697,VALID,0.0169808,VALID,19.9601,VALID,127,VALID,0,
2002-03-16, 00:53:00,VALID,918.739,VALID,0,VALID,98.5532,VALID,0.0169808,VALID,19.9668,VALID,105,VALID,0.118164,
2002-03-16, 00:54:00,VALID,918.716,VALID,0,VALID,98.5303,VALID,0,VALID,19.9472,VALID,84,VALID,0.541016,
2002-03-16, 00:55:00,VALID,918.693,VALID,0,VALID,98.5074,VALID,0.0339617,VALID,19.937,VALID,105,VALID,0.723524,
2002-03-16, 00:56:00,VALID,918.668,VALID,0,VALID,98.4998,VALID,0.0169808,VALID,19.938,VALID,62,VALID,0.43608,
2002-03-16, 00:57:00,VALID,918.641,VALID,0,VALID,98.4947,VALID,0.0509425,VALID,19.9311,VALID,87,VALID,0.0415296,
2002-03-16, 00:58:00,VALID,918.628,VALID,0,VALID,98.4794,VALID,0.0339617,VALID,19.934,VALID,89,VALID,0.170089,
2002-03-16, 00:59:00,VALID,918.603,VALID,0,VALID,98.4858,VALID,0.0169808,VALID,19.9475,VALID,103,VALID,0.59398,
2002-03-16, 01:00:00,VALID,918.576,VALID,0,VALID,98.5048,VALID,0,VALID,19.9569,VALID,146,VALID,0.842483,
2002-03-16, 01:01:00,VALID,918.559,VALID,0,VALID,98.5023,VALID,0.0339617,VALID,19.9733,VALID,157,VALID,0.775971,
2002-03-16, 01:02:00,VALID,918.543,VALID,0,VALID,98.4794,VALID,0.0339617,VALID,19.99,VALID,134,VALID,0.813232,
2002-03-16, 01:03:00,VALID,918.521,VALID,0.2,VALID,98.4451,VALID,0.0169808,VALID,19.983,VALID,128,VALID,0.485026,
2002-03-16, 01:04:00,VALID,918.5,VALID,0,VALID,98.4286,VALID,0.0169808,VALID,19.9959,VALID,108,VALID,0.649089,
2002-03-16, 01:05:00,VALID,918.482,VALID,0,VALID,98.3942,VALID,0,VALID,19.9895,VALID,109,VALID,0.902936,
2002-03-16, 01:06:00,VALID,918.458,VALID,0,VALID,98.3675,VALID,0,VALID,19.9827,VALID,104,VALID,0.903577,
2002-03-16, 01:07:00,VALID,918.43,VALID,0,VALID,98.3573,VALID,0,VALID,19.9827,VALID,112,VALID,1.08259,
2002-03-16, 01:08:00,VALID,918.417,VALID,0,VALID,98.3319,VALID,0.0169808,VALID,20.0026,VALID,117,VALID,1.25988,
2002-03-16, 01:09:00,VALID,918.384,VALID,0,VALID,98.323,VALID,0.0169808,VALID,19.9825,VALID,85,VALID,0.907517,
2002-03-16, 01:10:00,VALID,918.381,VALID,0,VALID,98.3027,VALID,0.0509425,VALID,19.9862,VALID,119,VALID,1.10367,
2002-03-16, 01:11:00,VALID,918.353,VALID,0,VALID,98.3103,VALID,0.0339617,VALID,19.9962,VALID,128,VALID,0.675049,
2002-03-16, 01:12:00,VALID,918.335,VALID,0,VALID,98.2785,VALID,0.0169808,VALID,20.0026,VALID,124,VALID,0.990885,
2002-03-16, 01:13:00,VALID,918.306,VALID,0,VALID,98.2302,VALID,0.0339617,VALID,20.0123,VALID,122,VALID,0.621962,
2002-03-16, 01:14:00,VALID,918.278,VALID,0,VALID,98.2162,VALID,0.0339617,VALID,19.9986,VALID,106,VALID,0.980824,
2002-03-16, 01:15:00,VALID,918.259,VALID,0,VALID,98.1857,VALID,0.0169808,VALID,20.0086,VALID,122,VALID,1.10074,
2002-03-16, 01:16:00,VALID,918.242,VALID,0,VALID,98.1463,VALID,0.0169808,VALID,20.0287,VALID,112,VALID,0.9875,
2002-03-16, 01:17:00,VALID,918.21,VALID,0,VALID,98.056,VALID,0,VALID,20.0337,VALID,110,VALID,0.926471,
2002-03-16, 01:18:00,VALID,918.21,VALID,0,VALID,98.0216,VALID,0.0169808,VALID,20.0541,VALID,120,VALID,1.03252,
2002-03-16, 01:19:00,VALID,918.197,VALID,0,VALID,97.9581,VALID,0,VALID,20.067,VALID,117,VALID,0.961782,
2002-03-16, 01:20:00,VALID,918.193,VALID,0,VALID,97.8907,VALID,0,VALID,20.0802,VALID,120,VALID,1.10181,
2002-03-16, 01:21:00,VALID,918.185,VALID,0,VALID,97.8207,VALID,0,VALID,20.0735,VALID,93,VALID,0.990234,
2002-03-16, 01:22:00,VALID,918.171,VALID,0,VALID,97.7813,VALID,0,VALID,20.0829,VALID,102,VALID,0.927517,
2002-03-16, 01:23:00,VALID,918.15,VALID,0,VALID,97.761,VALID,0.0169808,VALID,20.0961,VALID,124,VALID,1.07623,
2002-03-16, 01:24:00,VALID,918.135,VALID,0,VALID,97.7304,VALID,0.0169808,VALID,20.0993,VALID,82,VALID,1.0551,
2002-03-16, 01:25:00,VALID,918.117,VALID,0,VALID,97.677,VALID,0.0339617,VALID,20.1018,VALID,112,VALID,0.865402,
2002-03-16, 01:26:00,VALID,918.104,VALID,0,VALID,97.6478,VALID,0.101885,VALID,20.104,VALID,125,VALID,0.598575,
2002-03-16, 01:27:00,VALID,918.093,VALID,0,VALID,97.6414,VALID,0.101885,VALID,20.1047,VALID,131,VALID,1.20798,
2002-03-16, 01:28:00,VALID,918.085,VALID,0,VALID,97.6325,VALID,0.118866,VALID,20.1077,VALID,121,VALID,0.971706,
2002-03-16, 01:29:00,VALID,918.074,VALID,0,VALID,97.6338,VALID,0.101885,VALID,20.0978,VALID,130,VALID,1.08765,
2002-03-16, 01:30:00,VALID,918.058,VALID,0,VALID,97.6287,VALID,0.101885,VALID,20.0913,VALID,120,VALID,0.86263,
2002-03-16, 01:31:00,VALID,918.051,VALID,0,VALID,97.63,VALID,0.101885,VALID,20.0948,VALID,121,VALID,0.927517,
2002-03-16, 01:32:00,VALID,918.051,VALID,0,VALID,97.6173,VALID,0.118866,VALID,20.0876,VALID,90,VALID,0.875,
2002-03-16, 01:33:00,VALID,918.039,VALID,0,VALID,97.6147,VALID,0.118866,VALID,20.0945,VALID,115,VALID,0.624178,
2002-03-16, 01:34:00,VALID,918.044,VALID,0.2,VALID,97.6376,VALID,0.0849042,VALID,20.0849,VALID,114,VALID,1.12098,
2002-03-16, 01:35:00,VALID,918.028,VALID,0,VALID,97.6478,VALID,0.101885,VALID,20.1018,VALID,119,VALID,0.862132,
2002-03-16, 01:36:00,VALID,918.016,VALID,0,VALID,97.6503,VALID,0.101885,VALID,20.1047,VALID,137,VALID,1.52787,
2002-03-16, 01:37:00,VALID,918.008,VALID,0,VALID,97.5982,VALID,0.101885,VALID,20.1209,VALID,130,VALID,0.751056,
2002-03-16, 01:38:00,VALID,917.988,VALID,0,VALID,97.5702,VALID,0.101885,VALID,20.1234,VALID,144,VALID,0.422119,
2002-03-16, 01:39:00,VALID,917.973,VALID,0,VALID,97.5511,VALID,0.135847,VALID,20.1196,VALID,150,VALID,0.648438,
2002-03-16, 01:40:00,VALID,917.96,VALID,0.2,VALID,97.5804,VALID,0.0849042,VALID,20.1174,VALID,136,VALID,0.291884,
2002-03-16, 01:41:00,VALID,917.94,VALID,0,VALID,97.6147,VALID,0.0169808,VALID,20.1184,VALID,84,VALID,0.306818,
2002-03-16, 01:42:00,VALID,917.915,VALID,0,VALID,97.6529,VALID,0,VALID,20.1047,VALID,105,VALID,0.289474,
2002-03-16, 01:43:00,VALID,917.888,VALID,0,VALID,97.6541,VALID,0.0339617,VALID,20.1055,VALID,138,VALID,0.202455,
2002-03-16, 01:44:00,VALID,917.877,VALID,0.2,VALID,97.6859,VALID,0,VALID,20.0961,VALID,135,VALID,0.418428,
2002-03-16, 01:45:00,VALID,917.849,VALID,0,VALID,97.7304,VALID,0.0339617,VALID,20.067,VALID,146,VALID,0.8106,
2002-03-16, 01:46:00,VALID,917.836,VALID,0,VALID,97.7508,VALID,0,VALID,20.0576,VALID,120,VALID,0.988809,
2002-03-16, 01:47:00,VALID,917.822,VALID,0,VALID,97.7788,VALID,0.0509425,VALID,20.0605,VALID,132,VALID,1.22314,
2002-03-16, 01:48:00,VALID,917.8,VALID,0.2,VALID,97.8195,VALID,0.0339617,VALID,20.0406,VALID,124,VALID,0.986545,
2002-03-16, 01:49:00,VALID,917.782,VALID,0,VALID,97.8678,VALID,0,VALID,20.0409,VALID,119,VALID,0.754557,
2002-03-16, 01:50:00,VALID,917.754,VALID,0,VALID,97.9072,VALID,0.0509425,VALID,20.0342,VALID,133,VALID,0.874053,
2002-03-16, 01:51:00,VALID,917.744,VALID,0,VALID,97.9441,VALID,0,VALID,20.0349,VALID,127,VALID,1.0074,
2002-03-16, 01:52:00,VALID,917.716,VALID,0.2,VALID,97.9644,VALID,0.0339617,VALID,20.0213,VALID,133,VALID,1.3404,
2002-03-16, 01:53:00,VALID,917.708,VALID,0,VALID,98,VALID,0.0169808,VALID,20.0218,VALID,130,VALID,0.57284,
2002-03-16, 01:54:00,VALID,917.684,VALID,0,VALID,98.0534,VALID,0.0169808,VALID,20.0183,VALID,127,VALID,0.958826,
2002-03-16, 01:55:00,VALID,917.656,VALID,0,VALID,98.0865,VALID,-0.0339617,VALID,20.0121,VALID,125,VALID,1.75063,
2002-03-16, 01:56:00,VALID,917.647,VALID,0,VALID,98.1272,VALID,-0.0849042,VALID,20.0131,VALID,134,VALID,1.28784,
2002-03-16, 01:57:00,VALID,917.62,VALID,0.2,VALID,98.145,VALID,-0.101885,VALID,20.0195,VALID,144,VALID,1.10243,
2002-03-16, 01:58:00,VALID,917.61,VALID,0,VALID,98.1564,VALID,-0.0849042,VALID,20.0166,VALID,125,VALID,1.19531,
2002-03-16, 01:59:00,VALID,917.588,VALID,0,VALID,98.1946,VALID,-0.0339617,VALID,20.0166,VALID,125,VALID,1.09399,
2002-03-16, 02:00:00,VALID,917.572,VALID,0,VALID,98.2073,VALID,-0.0849042,VALID,20.0031,VALID,128,VALID,1.06127,
2002-03-16, 02:01:00,VALID,917.551,VALID,0,VALID,98.2442,VALID,-0.0679233,VALID,19.9964,VALID,135,VALID,1.43996,
2002-03-16, 02:02:00,VALID,917.526,VALID,0.2,VALID,98.2582,VALID,-0.0679233,VALID,19.9969,VALID,135,VALID,1.03447,
2002-03-16, 02:03:00,VALID,917.513,VALID,0,VALID,98.2861,VALID,-0.0339617,VALID,20.0004,VALID,155,VALID,1.25633,
2002-03-16, 02:04:00,VALID,917.485,VALID,0,VALID,98.3052,VALID,-0.0849042,VALID,19.99,VALID,133,VALID,0.989654,
2002-03-16, 02:05:00,VALID,917.493,VALID,0,VALID,98.3484,VALID,-0.0679233,VALID,19.9907,VALID,135,VALID,0.939697,
2002-03-16, 02:06:00,VALID,917.467,VALID,0.2,VALID,98.3713,VALID,-0.0849042,VALID,19.9838,VALID,127,VALID,1.35243,
2002-03-16, 02:07:00,VALID,917.451,VALID,0,VALID,98.4209,VALID,-0.101885,VALID,19.9838,VALID,132,VALID,1.39952,
2002-03-16, 02:08:00,VALID,917.422,VALID,0,VALID,98.4476,VALID,-0.101885,VALID,19.9912,VALID,135,VALID,1.37074,
2002-03-16, 02:09:00,VALID,917.405,VALID,0,VALID,98.4553,VALID,-0.0339617,VALID,20.0007,VALID,132,VALID,1.61513,
2002-03-16, 02:10:00,VALID,917.394,VALID,0,VALID,98.4667,VALID,-0.0849042,VALID,19.9902,VALID,127,VALID,1.275,
2002-03-16, 02:11:00,VALID,917.371,VALID,0.2,VALID,98.4807,VALID,-0.0679233,VALID,20.0004,VALID,133,VALID,0.848805,
2002-03-16, 02:12:00,VALID,917.361,VALID,0,VALID,98.4756,VALID,-0.0849042,VALID,20.0007,VALID,119,VALID,1.53526,
2002-03-16, 02:13:00,VALID,917.331,VALID,0,VALID,98.4807,VALID,-0.101885,VALID,19.9972,VALID,136,VALID,1.27449,
2002-03-16, 02:14:00,VALID,917.318,VALID,0,VALID,98.4705,VALID,-0.0509425,VALID,19.9805,VALID,149,VALID,1.43994,
2002-03-16, 02:15:00,VALID,917.293,VALID,0,VALID,98.4756,VALID,-0.0849042,VALID,19.9778,VALID,150,VALID,1.55404,
2002-03-16, 02:16:00,VALID,917.277,VALID,0.2,VALID,98.4947,VALID,-0.0509425,VALID,19.9582,VALID,157,VALID,1.74848,
2002-03-16, 02:17:00,VALID,917.253,VALID,0,VALID,98.482,VALID,-0.0849042,VALID,19.9587,VALID,150,VALID,2.08712,
2002-03-16, 02:18:00,VALID,917.237,VALID,0,VALID,98.501,VALID,-0.0849042,VALID,19.9261,VALID,157,VALID,1.32792,
2002-03-16, 02:19:00,VALID,917.231,VALID,0,VALID,98.5315,VALID,-0.0849042,VALID,19.903,VALID,145,VALID,1.20246,
2002-03-16, 02:20:00,VALID,917.195,VALID,0,VALID,98.5519,VALID,-0.0849042,VALID,19.8898,VALID,152,VALID,1.71875,
2002-03-16, 02:21:00,VALID,917.186,VALID,0,VALID,98.59,VALID,-0.0679233,VALID,19.8871,VALID,160,VALID,0.962416,
2002-03-16, 02:22:00,VALID,917.185,VALID,0,VALID,98.6078,VALID,-0.0339617,VALID,19.8605,VALID,154,VALID,1.15688,
2002-03-16, 02:23:00,VALID,917.177,VALID,0.2,VALID,98.6295,VALID,-0.0509425,VALID,19.8642,VALID,151,VALID,0.743896,
2002-03-16, 02:24:00,VALID,917.18,VALID,0,VALID,98.6371,VALID,-0.0679233,VALID,19.8573,VALID,137,VALID,0.992405,
2002-03-16, 02:25:00,VALID,917.152,VALID,0,VALID,98.6778,VALID,-0.0339617,VALID,19.858,VALID,155,VALID,1.31207,
2002-03-16, 02:26:00,VALID,917.15,VALID,0,VALID,98.6969,VALID,-0.0509425,VALID,19.8511,VALID,118,VALID,0.857955,
2002-03-16, 02:27:00,VALID,917.143,VALID,0,VALID,98.7108,VALID,-0.0509425,VALID,19.8612,VALID,150,VALID,1.02344,
2002-03-16, 02:28:00,VALID,917.129,VALID,0,VALID,98.7223,VALID,-0.0679233,VALID,19.855,VALID,144,VALID,1.08304,
2002-03-16, 02:29:00,VALID,917.124,VALID,0,VALID,98.7528,VALID,-0.0679233,VALID,19.8685,VALID,150,VALID,1.08019,
2002-03-16, 02:30:00,VALID,917.118,VALID,0,VALID,98.7617,VALID,-0.0679233,VALID,19.8548,VALID,134,VALID,0.966427,
2002-03-16, 02:31:00,VALID,917.108,VALID,0,VALID,98.7782,VALID,-0.0679233,VALID,19.8583,VALID,135,VALID,0.728885,
2002-03-16, 02:32:00,VALID,917.092,VALID,0,VALID,98.791,VALID,-0.0679233,VALID,19.8709,VALID,131,VALID,1.14771,
2002-03-16, 02:33:00,VALID,917.061,VALID,0,VALID,98.8011,VALID,-0.0509425,VALID,19.8742,VALID,156,VALID,1.31662,
2002-03-16, 02:34:00,VALID,917.04,VALID,0,VALID,98.8075,VALID,-0.0849042,VALID,19.8742,VALID,147,VALID,0.844401,
2002-03-16, 02:35:00,VALID,917.015,VALID,0.2,VALID,98.8151,VALID,-0.0849042,VALID,19.8841,VALID,146,VALID,0.807765,
2002-03-16, 02:36:00,VALID,916.995,VALID,0,VALID,98.8113,VALID,-0.0849042,VALID,19.8774,VALID,139,VALID,1.07134,
2002-03-16, 02:37:00,VALID,916.988,VALID,0,VALID,98.8316,VALID,-0.0679233,VALID,19.8938,VALID,134,VALID,1.51429,
2002-03-16, 02:38:00,VALID,916.984,VALID,0,VALID,98.8253,VALID,-0.101885,VALID,19.8975,VALID,151,VALID,0.994485,
2002-03-16, 02:39:00,VALID,916.978,VALID,0,VALID,98.8316,VALID,-0.101885,VALID,19.8841,VALID,136,VALID,0.843328,
2002-03-16, 02:40:00,VALID,916.965,VALID,0,VALID,98.8355,VALID,-0.0339617,VALID,19.8769,VALID,117,VALID,0.911951,
2002-03-16, 02:41:00,VALID,916.952,VALID,0,VALID,98.8355,VALID,0.0169808,VALID,19.8831,VALID,127,VALID,0.874268,
2002-03-16, 02:42:00,VALID,916.936,VALID,0,VALID,98.8329,VALID,0.0169808,VALID,19.8861,VALID,100,VALID,0.683594,
2002-03-16, 02:43:00,VALID,916.921,VALID,0,VALID,98.8316,VALID,0.0169808,VALID,19.8829,VALID,73,VALID,0.836155,
2002-03-16, 02:44:00,VALID,916.915,VALID,0,VALID,98.8316,VALID,0,VALID,19.8699,VALID,88,VALID,1.32315,
2002-03-16, 02:45:00,VALID,916.914,VALID,0,VALID,98.8342,VALID,0.0169808,VALID,19.8602,VALID,83,VALID,1.46279,
2002-03-16, 02:46:00,VALID,916.893,VALID,0,VALID,98.8431,VALID,0,VALID,19.8501,VALID,72,VALID,1.47054,
2002-03-16, 02:47:00,VALID,916.867,VALID,0,VALID,98.8406,VALID,0,VALID,19.867,VALID,84,VALID,1.40625,
2002-03-16, 02:48:00,VALID,916.864,VALID,0,VALID,98.8533,VALID,0.0169808,VALID,19.857,VALID,72,VALID,0.73902,
2002-03-16, 02:49:00,VALID,916.841,VALID,0,VALID,98.8634,VALID,0.0169808,VALID,19.8635,VALID,116,VALID,1.32137,
2002-03-16, 02:50:00,VALID,916.831,VALID,0,VALID,98.8774,VALID,0.0339617,VALID,19.8632,VALID,122,VALID,0.878662,
2002-03-16, 02:51:00,VALID,916.818,VALID,0,VALID,98.8812,VALID,0.0169808,VALID,19.863,VALID,135,VALID,1.37695,
2002-03-16, 02:52:00,VALID,916.828,VALID,0,VALID,98.8889,VALID,0.0169808,VALID,19.8732,VALID,131,VALID,1.15842,
2002-03-16, 02:53:00,VALID,916.823,VALID,0,VALID,98.8914,VALID,0.0339617,VALID,19.8794,VALID,118,VALID,0.982008,
2002-03-16, 02:54:00,VALID,916.813,VALID,0,VALID,98.8876,VALID,0.0169808,VALID,19.8861,VALID,120,VALID,0.826891,
2002-03-16, 02:55:00,VALID,916.819,VALID,0,VALID,98.8876,VALID,0.0339617,VALID,19.893,VALID,132,VALID,0.881696,
2002-03-16, 02:56:00,VALID,916.815,VALID,0,VALID,98.8889,VALID,-0.0169808,VALID,19.8811,VALID,142,VALID,1.03033,
2002-03-16, 02:57:00,VALID,916.813,VALID,0,VALID,98.8825,VALID,-0.0339617,VALID,19.8839,VALID,144,VALID,1.13598,
2002-03-16, 02:58:00,VALID,916.803,VALID,0,VALID,98.8863,VALID,-0.0509425,VALID,19.8844,VALID,136,VALID,0.509713,
2002-03-16, 02:59:00,VALID,916.797,VALID,0,VALID,98.8787,VALID,-0.0509425,VALID,19.894,VALID,71,VALID,0.652344,
2002-03-16, 03:00:00,VALID,916.792,VALID,0,VALID,98.8749,VALID,-0.0169808,VALID,19.8771,VALID,101,VALID,0.913411,
2002-03-16, 03:01:00,VALID,916.773,VALID,0,VALID,98.8812,VALID,-0.0679233,VALID,19.8742,VALID,104,VALID,0.639974,
2002-03-16, 03:02:00,VALID,916.77,VALID,0,VALID,98.8749,VALID,-0.0339617,VALID,19.8809,VALID,70,VALID,0.684896,
2002-03-16, 03:03:00,VALID,916.774,VALID,0,VALID,98.8736,VALID,-0.0339617,VALID,19.8742,VALID,110,VALID,0.779194,
2002-03-16, 03:04:00,VALID,916.764,VALID,0,VALID,98.866,VALID,-0.0849042,VALID,19.868,VALID,86,VALID,1.13192,
2002-03-16, 03:05:00,VALID,916.742,VALID,0,VALID,98.8838,VALID,-0.0679233,VALID,19.8516,VALID,90,VALID,1.19577,
2002-03-16, 03:06:00,VALID,916.752,VALID,0,VALID,98.8673,VALID,0,VALID,19.8714,VALID,66,VALID,0.680743,
2002-03-16, 03:07:00,VALID,916.746,VALID,0,VALID,98.8622,VALID,-0.0169808,VALID,19.8513,VALID,99,VALID,0.92103,
2002-03-16, 03:08:00,VALID,916.735,VALID,0,VALID,98.8571,VALID,-0.0169808,VALID,19.8585,VALID,88,VALID,0.513184,
2002-03-16, 03:09:00,VALID,916.733,VALID,0,VALID,98.8533,VALID,-0.0169808,VALID,19.8416,VALID,107,VALID,0.651693,
2002-03-16, 03:10:00,VALID,916.718,VALID,0,VALID,98.8533,VALID,0,VALID,19.8481,VALID,97,VALID,0.752821,
2002-03-16, 03:11:00,VALID,916.705,VALID,0.2,VALID,98.8456,VALID,-0.0339617,VALID,19.8354,VALID,118,VALID,1.07173,
2002-03-16, 03:12:00,VALID,916.681,VALID,0,VALID,98.8342,VALID,-0.0169808,VALID,19.8483,VALID,135,VALID,1.02323,
2002-03-16, 03:13:00,VALID,916.669,VALID,0,VALID,98.8329,VALID,-0.0509425,VALID,19.8456,VALID,166,VALID,0.432589,
2002-03-16, 03:14:00,VALID,916.644,VALID,0,VALID,98.81,VALID,0,VALID,19.8486,VALID,139,VALID,0.68704,
2002-03-16, 03:15:00,VALID,916.633,VALID,0,VALID,98.8011,VALID,-0.0169808,VALID,19.8548,VALID,138,VALID,0.922508,
2002-03-16, 03:16:00,VALID,916.617,VALID,0,VALID,98.7935,VALID,0,VALID,19.8486,VALID,135,VALID,1.11824,
2002-03-16, 03:17:00,VALID,916.603,VALID,0,VALID,98.7706,VALID,-0.0679233,VALID,19.8359,VALID,134,VALID,1.427,
2002-03-16, 03:18:00,VALID,916.589,VALID,0,VALID,98.749,VALID,-0.0339617,VALID,19.826,VALID,115,VALID,1.28581,
2002-03-16, 03:19:00,VALID,916.58,VALID,0,VALID,98.7147,VALID,-0.0339617,VALID,19.8356,VALID,125,VALID,0.795356,
2002-03-16, 03:20:00,VALID,916.564,VALID,0,VALID,98.6969,VALID,-0.0509425,VALID,19.8389,VALID,120,VALID,0.905777,
2002-03-16, 03:21:00,VALID,916.546,VALID,0,VALID,98.6816,VALID,-0.0339617,VALID,19.8356,VALID,127,VALID,1.00206,
2002-03-16, 03:22:00,VALID,916.526,VALID,0,VALID,98.6638,VALID,-0.0679233,VALID,19.8329,VALID,138,VALID,0.728795,
2002-03-16, 03:23:00,VALID,916.501,VALID,0,VALID,98.6511,VALID,-0.0849042,VALID,19.8324,VALID,138,VALID,1.00368,
2002-03-16, 03:24:00,VALID,916.493,VALID,0,VALID,98.6231,VALID,-0.0679233,VALID,19.8262,VALID,133,VALID,0.585304,
2002-03-16, 03:25:00,VALID,916.47,VALID,0,VALID,98.6256,VALID,-0.0849042,VALID,19.8262,VALID,132,VALID,0.628167,
2002-03-16, 03:26:00,VALID,916.454,VALID,0,VALID,98.6117,VALID,-0.0679233,VALID,19.8098,VALID,137,VALID,0.707275,
2002-03-16, 03:27:00,VALID,916.444,VALID,0,VALID,98.6015,VALID,-0.0509425,VALID,19.8133,VALID,120,VALID,0.723307,
2002-03-16, 03:28:00,VALID,916.447,VALID,0,VALID,98.5837,VALID,-0.0509425,VALID,19.8001,VALID,109,VALID,0.741102,
2002-03-16, 03:29:00,VALID,916.438,VALID,0,VALID,98.5684,VALID,-0.0339617,VALID,19.7872,VALID,124,VALID,0.607481,
2002-03-16, 03:30:00,VALID,916.435,VALID,0,VALID,98.5722,VALID,-0.0509425,VALID,19.7842,VALID,115,VALID,0.601974,
2002-03-16, 03:31:00,VALID,916.429,VALID,0,VALID,98.5799,VALID,-0.0339617,VALID,19.7842,VALID,63,VALID,0.413393,